This is the latest recevied weather packets stored in our database for station/object K9ABJ. If no packets are shown the sender has not sent any weather packets the latest 10 day(s).
| Time | Temp. | Humidity | Pressure | Rain* | Wind** | Luminosity | Snow |
|---|---|---|---|---|---|---|---|
| 1787686539 | 25° C | 55% | 1018.8 hPa | 0 mm | - | 327 W/m² | - |
| 1787686234 | 26.11° C | 55% | 1018.8 hPa | 0 mm | - | 284 W/m² | - |
| 1787685930 | 25° C | 57% | 1018.9 hPa | 0 mm | - | 250 W/m² | - |
| 1787685626 | 25° C | 57% | 1018.8 hPa | 0 mm | - | 252 W/m² | - |
| 1787685325 | 26.11° C | 58% | 1019.2 hPa | 0 mm | - | 230 W/m² | - |
| 1787685020 | 25.56° C | 57% | 1019 hPa | 0 mm | - | 269 W/m² | - |
| 1787684716 | 26.67° C | 55% | 1019.2 hPa | 0 mm | - | 640 W/m² | - |
| 1787684414 | 25.56° C | 56% | 1019.2 hPa | 0 mm | - | 635 W/m² | - |
| 1787684110 | 26.11° C | 57% | 1019.4 hPa | 0 mm | - | 733 W/m² | - |
| 1787683808 | 25° C | 57% | 1019.4 hPa | 0 mm | - | 722 W/m² | - |
| 1787683504 | 27.22° C | 53% | 1019.7 hPa | 0 mm | - | 699 W/m² | - |
| 1787683200 | 25° C | 57% | 1019.6 hPa | 0 mm | - | 680 W/m² | - |
| 1787682897 | 26.11° C | 60% | 1019.9 hPa | 0 mm | - | 552 W/m² | - |
| 1787682592 | 25.56° C | 57% | 1019.7 hPa | 0 mm | - | 577 W/m² | - |
| 1787682288 | 26.67° C | 57% | 1019.9 hPa | 0 mm | - | 724 W/m² | - |
| 1787681983 | 26.11° C | 58% | 1020.1 hPa | 0 mm | - | 752 W/m² | - |
| 1787681678 | 26.11° C | 59% | 1020 hPa | 0 mm | - | 708 W/m² | - |
| 1787681373 | 26.67° C | 57% | 1020.4 hPa | 0 mm | - | 680 W/m² | - |
| 1787681068 | 25° C | 58% | 1020.1 hPa | 0 mm | - | 723 W/m² | - |
| 1787680768 | 25° C | 59% | 1020.4 hPa | 0 mm | - | 736 W/m² | - |
| 1787680463 | 25° C | 61% | 1020.3 hPa | 0 mm | - | 708 W/m² | - |
| 1787680161 | 25° C | 57% | 1020.2 hPa | 0 mm | - | 728 W/m² | - |
| 1787679856 | 24.44° C | 59% | 1020.6 hPa | 0 mm | - | 699 W/m² | - |
| 1787679555 | 25.56° C | 60% | 1020.4 hPa | 0 mm | - | 621 W/m² | - |
| 1787679252 | 25° C | 58% | 1020.5 hPa | 0 mm | - | 651 W/m² | - |
* Rain latest hour (hover to see other rain measurements)
** Current wind speed in m/s (hover to see current wind gust speed)